Back to catalog

FREGAT DEB

LostUNKNOWN
NORAD 46409·DEBRIS·🇷🇺 Russia

Launched Jul 18, 2011 from Baikonur Cosmodrome

Loading…

Next Passes (next 24 hours)

TLE

StaleSource: Space-Track

Epoch: Oct 7, 2020, 01:48 UTC

1 46409U 11037LQ  20281.07543435  .00010409  00000-0  23290+0 0  9998
2 46409  51.2450 167.1448 1514867 171.3218 191.7203  9.99438614  4165

Track FREGAT DEB in real time with AllMySat

Download on the App Store